When you browse on this site, cookies collect data to enhance your experience and personalize the content and advertising you see.
Visit our Privacy Policy to learn more. By continuing to use the site, you agree to this use of cookies and data.
  • In Switzerland
  • List of Countries
  • For 7 days
  • Water Temperature
  • Weather Map
  • Weather Widgets
  • user-avatar
    Login

    Hourly Weather Qala i Naw

    Today, 25 February, Tuesday

    Time Temperature Precipitation Wind Pressure Humidity
    00:00 +12°C° 0 mm 3 mps 682 mmHg 51%
    01:00 +12°C° 0 mm 3 mps 682 mmHg 50%
    02:00 +12°C° 0 mm 3 mps 682 mmHg 49%
    03:00 +11°C° 0 mm 3 mps 681 mmHg 49%
    04:00 +11°C° 0 mm 3 mps 681 mmHg 49%
    05:00 +11°C° 0 mm 4 mps 681 mmHg 48%
    06:00 +11°C° 0 mm 4 mps 681 mmHg 47%
    07:00 +11°C° 0 mm 4 mps 681 mmHg 47%
    08:00 +13°C° 0 mm 4 mps 682 mmHg 43%
    09:00 +15°C° 0 mm 4 mps 682 mmHg 39%
    10:00 +18°C° 0 mm 3 mps 682 mmHg 35%
    11:00 +19°C° 0 mm 4 mps 682 mmHg 32%
    12:00 +21°C° 0 mm 4 mps 682 mmHg 30%
    13:00 +22°C° 0 mm 4 mps 681 mmHg 28%
    14:00 +22°C° 0 mm 4 mps 681 mmHg 29%
    15:00 +22°C° 0 mm 4 mps 680 mmHg 31%
    16:00 +21°C° 0 mm 3 mps 680 mmHg 32%
    17:00 +20°C° 0 mm 3 mps 680 mmHg 35%
    18:00 +19°C° 0 mm 3 mps 680 mmHg 38%
    19:00 +18°C° 0 mm 3 mps 680 mmHg 41%
    20:00 +17°C° 0 mm 4 mps 680 mmHg 43%
    21:00 +17°C° 0 mm 4 mps 680 mmHg 46%
    22:00 +16°C° 0 mm 5 mps 680 mmHg 48%
    23:00 +16°C° 0 mm 5 mps 680 mmHg 47%

    Tomorrow, 26 February, Wednesday

    Time Temperature Precipitation Wind Pressure Humidity
    00:00 +16°C° 0 mm 5 mps 680 mmHg 46%
    01:00 +16°C° 0 mm 6 mps 679 mmHg 44%
    02:00 +16°C° 0 mm 6 mps 679 mmHg 44%
    03:00 +16°C° 0 mm 6 mps 678 mmHg 44%
    04:00 +16°C° 0 mm 6 mps 678 mmHg 44%
    05:00 +16°C° 0 mm 5 mps 678 mmHg 44%
    06:00 +16°C° 0 mm 5 mps 678 mmHg 44%
    07:00 +16°C° 0 mm 5 mps 678 mmHg 44%
    08:00 +17°C° 0 mm 5 mps 679 mmHg 43%
    09:00 +19°C° 0 mm 4 mps 679 mmHg 41%
    10:00 +20°C° 0 mm 4 mps 680 mmHg 40%
    11:00 +18°C° 0 mm 4 mps 680 mmHg 52%
    12:00 +15°C° 0 mm 4 mps 679 mmHg 64%
    13:00 +13°C° 0 mm 4 mps 679 mmHg 77%
    14:00 +13°C° 0 mm 3 mps 679 mmHg 75%
    15:00 +13°C° 0 mm 3 mps 679 mmHg 73%
    16:00 +14°C° 0 mm 2 mps 678 mmHg 72%
    17:00 +14°C° 0 mm 2 mps 678 mmHg 75%
    18:00 +13°C° 0 mm 2 mps 678 mmHg 78%
    19:00 +11°C° 0 mm 3 mps 678 mmHg 82%
    20:00 +10°C° 0.3 mm 4 mps 678 mmHg 85%
    21:00 +8°C° 0.3 mm 4 mps 678 mmHg 89%
    22:00 +8°C° 0.3 mm 5 mps 678 mmHg 93%
    23:00 +7°C° 4 mm 4 mps 678 mmHg 94%

    Day after tomorrow, 27 February, Thursday

    Time Temperature Precipitation Wind Pressure Humidity
    00:00 +6°C° 4 mm 4 mps 678 mmHg 95%
    01:00 +5°C° 4 mm 4 mps 678 mmHg 96%
    02:00 +4°C° 0.9 mm 4 mps 679 mmHg 95%
    03:00 +4°C° 0.9 mm 3 mps 679 mmHg 95%
    04:00 +3°C° 0.9 mm 3 mps 680 mmHg 95%
    05:00 +3°C° 0.3 mm 4 mps 680 mmHg 95%
    06:00 +1°C° 0.3 mm 4 mps 681 mmHg 95%
    07:00 +1°C° 0.3 mm 5 mps 681 mmHg 96%
    08:00 0°C° 0.7 mm 5 mps 682 mmHg 96%
    09:00 0°C° 0.7 mm 5 mps 682 mmHg 96%
    10:00 -1°C° 0.7 mm 5 mps 682 mmHg 96%
    11:00 -1°C° 0.4 mm 4 mps 682 mmHg 96%
    12:00 -1°C° 0.4 mm 4 mps 682 mmHg 96%
    13:00 0°C° 0.4 mm 3 mps 682 mmHg 95%
    14:00 0°C° 0.1 mm 3 mps 682 mmHg 95%
    15:00 +1°C° 0.1 mm 2 mps 682 mmHg 94%
    16:00 +1°C° 0.1 mm 2 mps 682 mmHg 94%
    17:00 +2°C° 0 mm 1 mps 683 mmHg 94%
    18:00 +2°C° 0 mm 1 mps 683 mmHg 93%
    19:00 +2°C° 0 mm 1 mps 684 mmHg 92%
    20:00 +3°C° 0 mm 1 mps 683 mmHg 92%
    21:00 +3°C° 0 mm 1 mps 683 mmHg 92%
    22:00 +3°C° 0 mm 1 mps 683 mmHg 92%
    23:00 +3°C° 0 mm 1 mps 683 mmHg 93%

    28 February, Friday

    Time Temperature Precipitation Wind Pressure Humidity
    00:00 +3°C° 0 mm 1 mps 683 mmHg 93%
    01:00 +3°C° 0 mm 1 mps 682 mmHg 93%
    02:00 +3°C° 0 mm 1 mps 682 mmHg 93%
    03:00 +3°C° 0 mm 1 mps 682 mmHg 93%
    04:00 +3°C° 0 mm 1 mps 681 mmHg 93%
    05:00 +3°C° 0 mm 1 mps 682 mmHg 93%
    06:00 +3°C° 0 mm 1 mps 682 mmHg 93%
    07:00 +3°C° 0 mm 1 mps 682 mmHg 93%
    08:00 +3°C° 0 mm 0 mps 681 mmHg 89%
    09:00 +4°C° 0 mm 0 mps 681 mmHg 86%
    10:00 +5°C° 0 mm 0 mps 681 mmHg 82%
    11:00 +6°C° 0 mm 0 mps 681 mmHg 78%
    12:00 +8°C° 0 mm 1 mps 681 mmHg 74%
    13:00 +9°C° 0 mm 1 mps 680 mmHg 70%
    14:00 +10°C° 0 mm 1 mps 680 mmHg 69%
    15:00 +10°C° 0 mm 1 mps 680 mmHg 67%
    16:00 +11°C° 0 mm 1 mps 679 mmHg 66%
    17:00 +10°C° 0 mm 1 mps 680 mmHg 69%
    18:00 +10°C° 0 mm 1 mps 680 mmHg 72%
    19:00 +9°C° 0 mm 1 mps 680 mmHg 75%
    20:00 +9°C° 0 mm 1 mps 680 mmHg 73%
    21:00 +9°C° 0 mm 1 mps 680 mmHg 71%
    22:00 +8°C° 0 mm 1 mps 680 mmHg 70%
    23:00 +8°C° 0 mm 1 mps 679 mmHg 66%

    29 February, Saturday

    Time Temperature Precipitation Wind Pressure Humidity
    00:00 +8°C° 0 mm 1 mps 679 mmHg 63%
    01:00 +7°C° 0 mm 2 mps 679 mmHg 59%
    02:00 +7°C° 0 mm 2 mps 678 mmHg 57%
    03:00 +7°C° 0 mm 2 mps 678 mmHg 54%
    04:00 +7°C° 0 mm 2 mps 678 mmHg 51%
    05:00 +7°C° 0 mm 2 mps 678 mmHg 50%
    06:00 +7°C° 0 mm 2 mps 679 mmHg 48%
    07:00 +7°C° 0 mm 2 mps 679 mmHg 47%
    08:00 +10°C° 0 mm 2 mps 679 mmHg 41%
    09:00 +13°C° 0 mm 2 mps 680 mmHg 36%
    10:00 +16°C° 0 mm 1 mps 680 mmHg 30%
    11:00 +17°C° 0 mm 2 mps 680 mmHg 28%
    12:00 +18°C° 0 mm 2 mps 680 mmHg 26%
    13:00 +18°C° 0 mm 2 mps 680 mmHg 24%
    14:00 +18°C° 0 mm 2 mps 680 mmHg 25%
    15:00 +18°C° 0 mm 2 mps 680 mmHg 27%
    16:00 +18°C° 0 mm 2 mps 679 mmHg 28%
    17:00 +16°C° 0 mm 1 mps 679 mmHg 35%
    18:00 +15°C° 0 mm 1 mps 679 mmHg 41%
    19:00 +13°C° 0 mm 1 mps 679 mmHg 48%
    20:00 +12°C° 0 mm 1 mps 679 mmHg 49%
    21:00 +12°C° 0 mm 1 mps 679 mmHg 49%
    22:00 +11°C° 0 mm 1 mps 679 mmHg 49%
    23:00 +11°C° 0 mm 1 mps 678 mmHg 48%

    1 March, Sunday

    Time Temperature Precipitation Wind Pressure Humidity
    00:00 +11°C° 0 mm 1 mps 678 mmHg 47%
    01:00 +10°C° 0 mm 2 mps 678 mmHg 46%
    02:00 +10°C° 0 mm 2 mps 677 mmHg 44%
    03:00 +9°C° 0 mm 2 mps 677 mmHg 43%
    04:00 +9°C° 0 mm 2 mps 676 mmHg 42%
    05:00 +9°C° 0 mm 2 mps 677 mmHg 41%
    06:00 +10°C° 0 mm 2 mps 677 mmHg 40%
    07:00 +10°C° 0 mm 3 mps 677 mmHg 40%
    08:00 +12°C° 0 mm 3 mps 677 mmHg 35%
    09:00 +16°C° 0 mm 3 mps 677 mmHg 29%
    10:00 +18°C° 0 mm 3 mps 678 mmHg 24%
    11:00 +20°C° 0 mm 3 mps 678 mmHg 22%
    12:00 +21°C° 0 mm 3 mps 678 mmHg 19%
    13:00 +22°C° 0 mm 3 mps 678 mmHg 16%
    14:00 +23°C° 0 mm 2 mps 677 mmHg 20%
    15:00 +23°C° 0 mm 2 mps 677 mmHg 23%
    16:00 +23°C° 0 mm 2 mps 677 mmHg 27%
    17:00 +20°C° 0 mm 2 mps 677 mmHg 31%
    18:00 +20°C° 0 mm 1 mps 677 mmHg 35%
    19:00 +18°C° 0 mm 1 mps 677 mmHg 39%
    20:00 +17°C° 0 mm 2 mps 677 mmHg 37%
    21:00 +17°C° 0 mm 2 mps 678 mmHg 35%
    22:00 +17°C° 0 mm 3 mps 678 mmHg 33%
    23:00 +16°C° 0 mm 3 mps 678 mmHg 34%
    Show more